Del Bajio, Mexico

7:04 AM CST on December 12, 2017 (GMT -0600)
De Guanajuato International

Weather History for MMLO - November, 2013

Change the Weather History Date:

Saturday, November 30, 2013

  Actual Average Record
Temperature  
Mean Temperature 57 °F -  
Max Temperature 75 °F 76 °F 86 °F (2004)
Min Temperature 39 °F 44 °F 35 °F (2011)
Degree Days  
Heating Degree Days 8    
Growing Degree Days 7 (Base 50)    
Moisture  
Dew Point 39 °F    
Average Humidity 57    
Maximum Humidity 93    
Minimum Humidity 27    
Precipitation  
Precipitation 0.00 in - - ()
Sea Level Pressure  
Sea Level Pressure 30.28 in    
Wind  
Wind Speed 3 mph ()    
Max Wind Speed 8 mph    
Max Gust Speed -    
Visibility 8.4 miles    
Events      
Averages and records for this station are not official NWS values.
T = Trace of Precipitation, MM = Missing Value Source: Averaged Metar Reports

Daily Weather History Graph

Daily Weather History Graph

Search for Another Location

Airport or City:

Trip Planner

Search our weather history database for the weather conditions in past years. The results will help you decide how hot, cold, wet, or windy it might be!

Date:

Astronomy

Nov. 30, 2013 Rise Set
Actual Time 7:05 AM CST 6:03 PM CST
Civil Twilight 6:42 AM CST 6:27 PM CST
Nautical Twilight 6:14 AM CST 6:54 PM CST
Astronomical Twilight 5:47 AM CST 7:21 PM CST
Moon 4:35 AM CST (11/30) 4:15 PM CST (11/30)
Length of Visible Light 11h 45m
Length of Day
10h 57m
Waning Crescent, 7% of the Moon is Illuminated
Nov 30
Waning Crescent
Dec 2
New
Dec 9
First Quarter
Dec 17
Full
Dec 25
Last Quarter

Hourly Weather History & Observations

Time (CST) Temp. Windchill Dew Point Humidity Pressure Visibility Wind Dir Wind Speed Gust Speed Precip Events Conditions
12:48 AM 46.4 °F 42.9 °F 37.4 °F 71% 30.37 in 8.0 mi NE 6.9 mph - N/A   Clear
1:46 AM 44.6 °F 40.7 °F 39.2 °F 81% 30.37 in 8.0 mi ENE 6.9 mph - N/A   Clear
2:49 AM 42.8 °F - 37.4 °F 81% 30.09 in 8.0 mi Calm Calm - N/A   Clear
3:46 AM 42.8 °F - 37.4 °F 81% 30.35 in 8.0 mi Calm Calm - N/A   Clear
5:50 AM 39.2 °F 35.0 °F 37.4 °F 93% 30.21 in 8.0 mi NNE 5.8 mph - N/A   Clear
6:47 AM 39.2 °F - 37.4 °F 93% 30.40 in 7.0 mi Calm Calm - N/A   Clear
7:50 AM 42.8 °F - 39.2 °F 87% 30.40 in 4.0 mi Calm Calm - N/A   Clear
9:49 AM 55.4 °F - 39.2 °F 54% 30.44 in 8.0 mi Calm Calm - N/A   Clear
10:42 AM 59.0 °F - 39.2 °F 48% 30.41 in 9.0 mi NW 5.8 mph - N/A   Partly Cloudy
11:46 AM 62.6 °F - 37.4 °F 39% 30.27 in 9.0 mi Calm Calm - N/A   Clear
12:43 PM 68.0 °F - 39.2 °F 35% 30.35 in 10.0 mi Calm Calm - N/A   Partly Cloudy
1:46 PM 71.6 °F - 39.2 °F 31% 30.29 in 10.0 mi SW 5.8 mph - N/A   Partly Cloudy
2:43 PM 73.4 °F - 39.2 °F 29% 30.00 in 10.0 mi Calm Calm - N/A   Scattered Clouds
3:40 PM 75.2 °F - 39.2 °F 27% 30.24 in 10.0 mi WSW 4.6 mph - N/A   Mostly Cloudy
4:41 PM 73.4 °F - 39.2 °F 29% 30.24 in 10.0 mi Calm Calm - N/A   Scattered Clouds
5:41 PM 71.6 °F - 41.0 °F 33% 29.99 in 10.0 mi Calm Calm - N/A   Scattered Clouds
6:47 PM 62.6 °F - 39.2 °F 42% 30.27 in 8.0 mi Calm Calm - N/A   Partly Cloudy
7:51 PM 55.4 °F - 39.2 °F 54% 30.29 in 8.0 mi Calm Calm - N/A   Partly Cloudy
9:41 PM 57.2 °F - 39.2 °F 51% 30.33 in 8.0 mi NE 8.1 mph - N/A   Partly Cloudy
10:49 PM 53.6 °F - 42.8 °F 67% 30.33 in 8.0 mi ENE 8.1 mph - N/A   Partly Cloudy
11:40 PM 51.8 °F - 42.8 °F 71% 30.14 in 8.0 mi SE 4.6 mph - N/A   Clear